DECAYED

STARLINK-2026, 47644 (Decayed)

Orbit data source: Space-Track

STARLINK-2026, 47644 was a payload satellite owned by SpaceX/Seattle (US) in LEO that was launched on Tue, 16 Feb 2021 UTC via an FALCON 9 launch vehicle from the Air Force Eastern Test Range (AFETR). Payload-class satellites include a variety of spacecraft equipped with specific instruments for various scientific and technological missions. These include communications satellites like Starlink; space stations such as the ISS; scientific satellites like the Hubble; Earth observation satellites from companies like Planet Labs, Umbra, and HawkEye 360; GPS; miniature CubeSats for education and research; and military/defense satellites.

Not visible in the next 10 days
Identifier
47644, 2021-012AA
Orbit
Decayed
Country
Flag of USUS
Related business
Manufacturer
SpaceX/Seattle
Mission
Decayed Commercial Communications
Bus & Motor
STARLINK, Unknown motor
Mass
260 kg wet, ~248 kg dry
Launch date (UTC)
2021-02-16 (5 years ago)
Launch vehicle
FALCON 9
Launch site
Air Force Eastern Test Range (AFETR)
Object type
Payload
Rocket body
Debris
Shape & HBR
Box + 1 Pan, 4.4 m
Radar Cross Section
13.562 m², Large (>1 m²)

Expand to show TLE details & history
Last TLE update: 11 months ago

TLE from 11 months ago
0 STARLINK-2026
1 47644U 21012AA  24278.72801815  .23839467  12435-4  12279-2 0  9990
2 47644  53.0248 185.2350 0003507 267.4294 192.5769 16.42725164201866
Epoch: 2024-10-04T17:28Z
TLE epoch observation values (Epoch: 2024-10-04T17:28:20.768Z)
Latitude
52.04207°
Longitude
15.60765°
Altitude
167.019 km
Speed
7.811 km/s
True Right ascension
19h 26m 21s
True Declination
51° 51' 36"
Sunlit
Object was in daylight at epoch
Visualization orbit readout
Latitude
Unknown
Longitude
Unknown
Altitude
Unknown
Speed
Unknown
Apparent Right ascension
Unknown
Apparent Declination
Unknown
Sunlit
N/A
Visualization observer readout
Local Sidereal Time
18:03:22
Azimuth
Unknown
Elevation
Unknown
Doppler factor
Unknown
Orbital elements
Apogee altitude
161.147 km
Perigee altitude
156.562 km
Semi-major axis
6,536.992 km
Eccentricity
0.00035
Inclination
53.0248°
RAAN
185.235°
Arg. of periapsis
267.4294°
True anomaly
192.56815°
Mean anomaly
192.5769°
Eccentric anomaly
192.57253°
Mean motion
4.10654 °/min
Orbital period
87.66 mins
BSTAR
0.0012279
Loading maneuver chart data...
Computing Atmospheric mass density...
Loading historical data...
Loading historical data...
Loading historical data...
Loading historical data...
Loading historical data...
Loading historical data...
Loading historical data...

Documentation

Showing up to 5 results
|